STARLINK-36897

Last updated on Fri Mar 27 2026 00:02:06 GMT+0000 (Coordinated Universal Time)

1 67951U 26037V 26085.50002314 .00113820 00000+0 19229-2 0 9991 2 67951 43.0003 97.0078 0001423 272.8051 228.8294 15.50504691 5901
UTC large
Height (km)
Speed (km/s)
/
Latitude / Longitude
Inclination (degrees)
Orbital Period (minutes)
Azimuth
Elevation
Range (km)
Doppler Factor

Next 0 passes for location: London (51.5072 / 0.1276)

Sorry there are no passes over London.